• In Deutschland
  • Länderverzeichnis
  • Für 7 Tage
  • Wassertemperatur
  • Satellitenkarten
  • Wetterkarte
  • Widgets
  • user-avatar
    Anmelden

    Stündliche Wetter Saida

    Heute, 19 Oktober, Freitag

    Zeit Temperatur Niederschläge Wind Luftdruck Luftfeuchtigkeit
    00:00 +26°C° 0.1 mm 1 m/S 759 mmHg 68%
    01:00 +26°C° 0.1 mm 1 m/S 759 mmHg 68%
    02:00 +26°C° 0 mm 1 m/S 759 mmHg 68%
    03:00 +26°C° 0.1 mm 1 m/S 759 mmHg 69%
    04:00 +25°C° 0.1 mm 1 m/S 759 mmHg 69%
    05:00 +25°C° 0.1 mm 1 m/S 759 mmHg 70%
    06:00 +26°C° 0.1 mm 1 m/S 759 mmHg 66%
    07:00 +27°C° 0.1 mm 1 m/S 759 mmHg 62%
    08:00 +28°C° 0.1 mm 1 m/S 759 mmHg 58%
    09:00 +29°C° 0.3 mm 1 m/S 759 mmHg 55%
    10:00 +30°C° 0.3 mm 2 m/S 759 mmHg 52%
    11:00 +31°C° 0.3 mm 2 m/S 759 mmHg 49%
    12:00 +31°C° 0.2 mm 2 m/S 759 mmHg 51%
    13:00 +31°C° 0.2 mm 2 m/S 759 mmHg 53%
    14:00 +31°C° 0.2 mm 2 m/S 759 mmHg 55%
    15:00 +30°C° 0.3 mm 2 m/S 759 mmHg 59%
    16:00 +29°C° 0.3 mm 2 m/S 759 mmHg 62%
    17:00 +28°C° 0.3 mm 1 m/S 759 mmHg 66%
    18:00 +28°C° 0.1 mm 1 m/S 759 mmHg 68%
    19:00 +28°C° 0.1 mm 1 m/S 759 mmHg 70%
    20:00 +27°C° 0.1 mm 1 m/S 759 mmHg 73%
    21:00 +27°C° 0 mm 1 m/S 759 mmHg 75%
    22:00 +26°C° 0 mm 1 m/S 759 mmHg 77%
    23:00 +26°C° 0 mm 1 m/S 759 mmHg 78%

    Morgen, 20 Oktober, Samstag

    Zeit Temperatur Niederschläge Wind Luftdruck Luftfeuchtigkeit
    00:00 +24°C° 0 mm 0 m/S 759 mmHg 80%
    01:00 +23°C° 0 mm 0 m/S 759 mmHg 81%
    02:00 +23°C° 0 mm 0 m/S 759 mmHg 83%
    03:00 +23°C° 0 mm 0 m/S 759 mmHg 83%
    04:00 +23°C° 0 mm 0 m/S 759 mmHg 84%
    05:00 +24°C° 0 mm 1 m/S 759 mmHg 85%
    06:00 +25°C° 0 mm 1 m/S 759 mmHg 80%
    07:00 +26°C° 0 mm 1 m/S 759 mmHg 76%
    08:00 +27°C° 0 mm 2 m/S 759 mmHg 71%
    09:00 +28°C° 0 mm 2 m/S 759 mmHg 67%
    10:00 +28°C° 0 mm 2 m/S 759 mmHg 63%
    11:00 +29°C° 0 mm 2 m/S 759 mmHg 59%
    12:00 +29°C° 0 mm 2 m/S 759 mmHg 60%
    13:00 +29°C° 0 mm 3 m/S 759 mmHg 60%
    14:00 +29°C° 0 mm 3 m/S 758 mmHg 61%
    15:00 +29°C° 0.1 mm 2 m/S 758 mmHg 64%
    16:00 +28°C° 0.1 mm 2 m/S 758 mmHg 68%
    17:00 +27°C° 0.1 mm 2 m/S 758 mmHg 72%
    18:00 +27°C° 0.1 mm 2 m/S 759 mmHg 74%
    19:00 +26°C° 0.1 mm 1 m/S 759 mmHg 76%
    20:00 +26°C° 0.1 mm 1 m/S 759 mmHg 78%
    21:00 +26°C° 0 mm 1 m/S 759 mmHg 79%
    22:00 +25°C° 0 mm 1 m/S 759 mmHg 81%
    23:00 +25°C° 0 mm 1 m/S 759 mmHg 83%

    übermorgen, 21 Oktober, Sonntag

    Zeit Temperatur Niederschläge Wind Luftdruck Luftfeuchtigkeit
    00:00 +25°C° 0 mm 2 m/S 759 mmHg 84%
    01:00 +24°C° 0 mm 2 m/S 758 mmHg 85%
    02:00 +24°C° 0 mm 2 m/S 758 mmHg 86%
    03:00 +24°C° 0 mm 2 m/S 758 mmHg 87%
    04:00 +24°C° 0 mm 2 m/S 758 mmHg 87%
    05:00 +24°C° 0 mm 2 m/S 758 mmHg 87%
    06:00 +24°C° 0 mm 2 m/S 759 mmHg 82%
    07:00 +25°C° 0 mm 2 m/S 759 mmHg 76%
    08:00 +26°C° 0 mm 2 m/S 759 mmHg 70%
    09:00 +27°C° 0 mm 2 m/S 759 mmHg 64%
    10:00 +28°C° 0 mm 3 m/S 759 mmHg 58%
    11:00 +29°C° 0 mm 3 m/S 759 mmHg 52%
    12:00 +29°C° 0 mm 3 m/S 759 mmHg 52%
    13:00 +29°C° 0 mm 4 m/S 759 mmHg 51%
    14:00 +30°C° 0 mm 4 m/S 758 mmHg 51%
    15:00 +29°C° 0 mm 3 m/S 758 mmHg 55%
    16:00 +28°C° 0 mm 3 m/S 758 mmHg 59%
    17:00 +27°C° 0 mm 2 m/S 758 mmHg 62%
    18:00 +27°C° 0 mm 2 m/S 758 mmHg 66%
    19:00 +26°C° 0 mm 2 m/S 759 mmHg 69%
    20:00 +26°C° 0 mm 2 m/S 759 mmHg 72%
    21:00 +25°C° 0 mm 2 m/S 759 mmHg 71%
    22:00 +25°C° 0 mm 2 m/S 759 mmHg 70%
    23:00 +25°C° 0 mm 2 m/S 759 mmHg 69%

    22 Oktober, Montag

    Zeit Temperatur Niederschläge Wind Luftdruck Luftfeuchtigkeit
    00:00 +25°C° 0 mm 2 m/S 759 mmHg 66%
    01:00 +24°C° 0 mm 2 m/S 759 mmHg 63%
    02:00 +24°C° 0 mm 1 m/S 759 mmHg 60%
    03:00 +24°C° 0 mm 1 m/S 759 mmHg 57%
    04:00 +24°C° 0 mm 1 m/S 759 mmHg 54%
    05:00 +24°C° 0 mm 1 m/S 759 mmHg 51%
    06:00 +26°C° 0 mm 1 m/S 759 mmHg 45%
    07:00 +27°C° 0 mm 1 m/S 759 mmHg 39%
    08:00 +29°C° 0 mm 1 m/S 760 mmHg 33%
    09:00 +30°C° 0 mm 1 m/S 759 mmHg 31%
    10:00 +31°C° 0 mm 2 m/S 759 mmHg 29%
    11:00 +32°C° 0 mm 2 m/S 759 mmHg 27%
    12:00 +34°C° 0 mm 3 m/S 759 mmHg 27%
    13:00 +34°C° 0 mm 3 m/S 758 mmHg 27%
    14:00 +34°C° 0 mm 4 m/S 758 mmHg 28%
    15:00 +33°C° 0 mm 4 m/S 757 mmHg 31%
    16:00 +32°C° 0 mm 4 m/S 757 mmHg 35%
    17:00 +30°C° 0 mm 3 m/S 757 mmHg 38%
    18:00 +30°C° 0 mm 3 m/S 757 mmHg 38%
    19:00 +30°C° 0 mm 3 m/S 758 mmHg 37%
    20:00 +29°C° 0 mm 3 m/S 758 mmHg 36%
    21:00 +29°C° 0 mm 2 m/S 758 mmHg 35%
    22:00 +29°C° 0 mm 2 m/S 758 mmHg 35%
    23:00 +28°C° 0 mm 2 m/S 758 mmHg 35%

    23 Oktober, Dienstag

    Zeit Temperatur Niederschläge Wind Luftdruck Luftfeuchtigkeit
    00:00 +28°C° 0.1 mm 2 m/S 758 mmHg 37%
    01:00 +27°C° 0.1 mm 2 m/S 757 mmHg 39%
    02:00 +27°C° 0.1 mm 2 m/S 757 mmHg 41%
    03:00 +26°C° 0.1 mm 2 m/S 757 mmHg 41%
    04:00 +26°C° 0.1 mm 2 m/S 758 mmHg 42%
    05:00 +26°C° 0.1 mm 2 m/S 758 mmHg 42%
    06:00 +27°C° 0 mm 2 m/S 758 mmHg 40%
    07:00 +28°C° 0 mm 2 m/S 758 mmHg 38%
    08:00 +29°C° 0 mm 2 m/S 759 mmHg 35%
    09:00 +29°C° 0 mm 2 m/S 759 mmHg 36%
    10:00 +30°C° 0 mm 3 m/S 759 mmHg 36%
    11:00 +31°C° 0 mm 3 m/S 759 mmHg 36%
    12:00 +31°C° 0 mm 3 m/S 759 mmHg 39%
    13:00 +31°C° 0 mm 3 m/S 758 mmHg 41%
    14:00 +31°C° 0 mm 3 m/S 758 mmHg 44%
    15:00 +30°C° 0 mm 3 m/S 758 mmHg 50%
    16:00 +29°C° 0 mm 2 m/S 758 mmHg 56%
    17:00 +28°C° 0 mm 2 m/S 758 mmHg 62%
    18:00 +27°C° 0 mm 2 m/S 759 mmHg 66%
    19:00 +27°C° 0 mm 1 m/S 759 mmHg 70%
    20:00 +26°C° 0 mm 1 m/S 759 mmHg 73%
    21:00 +26°C° 0 mm 1 m/S 759 mmHg 74%
    22:00 +26°C° 0 mm 1 m/S 759 mmHg 75%
    23:00 +25°C° 0 mm 1 m/S 759 mmHg 75%

    24 Oktober, Mittwoch

    Zeit Temperatur Niederschläge Wind Luftdruck Luftfeuchtigkeit
    00:00 +25°C° 0 mm 1 m/S 759 mmHg 75%
    01:00 +25°C° 0 mm 1 m/S 759 mmHg 76%
    02:00 +24°C° 0 mm 1 m/S 759 mmHg 76%
    03:00 +24°C° 0 mm 1 m/S 759 mmHg 76%
    04:00 +24°C° 0 mm 1 m/S 759 mmHg 75%
    05:00 +24°C° 0 mm 1 m/S 759 mmHg 75%
    06:00 +25°C° 0 mm 1 m/S 759 mmHg 67%
    07:00 +26°C° 0 mm 1 m/S 759 mmHg 59%
    08:00 +27°C° 0 mm 1 m/S 759 mmHg 51%
    09:00 +28°C° 0 mm 1 m/S 759 mmHg 46%
    10:00 +28°C° 0 mm 2 m/S 759 mmHg 41%
    11:00 +29°C° 0 mm 2 m/S 759 mmHg 35%
    12:00 +29°C° 0 mm 2 m/S 759 mmHg 36%
    13:00 +30°C° 0 mm 3 m/S 758 mmHg 37%
    14:00 +30°C° 0 mm 3 m/S 758 mmHg 38%
    15:00 +29°C° 0.1 mm 2 m/S 758 mmHg 44%
    16:00 +28°C° 0.1 mm 2 m/S 758 mmHg 50%
    17:00 +27°C° 0.1 mm 2 m/S 758 mmHg 57%
    18:00 +26°C° 0 mm 2 m/S 758 mmHg 61%
    19:00 +26°C° 0 mm 1 m/S 758 mmHg 65%
    20:00 +25°C° 0 mm 1 m/S 758 mmHg 69%
    21:00 +25°C° 0 mm 1 m/S 758 mmHg 67%
    22:00 +25°C° 0 mm 1 m/S 758 mmHg 65%
    23:00 +24°C° 0 mm 2 m/S 758 mmHg 63%
    Mehr zeigen